Regional Weather Roundup
Issued by NWS

Home | Current Version | Previous Version | Text Only | Print | Product List | Glossary On
Versions: 1 2 3 4 5 6 7 8 9 10 11 12 13 14 15 16 17 18 19 20 21 22 23 24 25 26 27 28 29 30 31 32 33 34 35 36 37 38 39 40 41 42 43 44 45 46 47 48 49 50
000
ASUS44 KOUN 141710
RWROK

WEATHER ROUNDUP FOR OKLAHOMA
NATIONAL WEATHER SERVICE NORMAN OK
1100 AM CST THU DEC 14 2017

NOTE: "FAIR" INDICATES FEW OR NO CLOUDS BELOW 12,000 FEET WITH NO
      SIGNIFICANT WEATHER AND/OR OBSTRUCTIONS TO VISIBILITY.

OKZ001>007-009>012-014-015-017-141800-
NORTHWEST OKLAHOMA AND THE PANHANDLE

CITY           SKY/WX    TMP DP  RH WIND       PRES   REMARKS
GAGE           CLOUDY    43  24  47 N17       30.22R
GUYMON         CLOUDY    37  35  92 NW12      30.24S WCI  29
ENID/WOODRING  PTSUNNY   43  30  61 N14       30.18R
$$

OKZ016-021>023-033>039-044-045-141800-
SOUTHWEST OKLAHOMA

CITY           SKY/WX    TMP DP  RH WIND       PRES   REMARKS
LAWTON/REGL    SUNNY     51  30  44 N12       30.19R
LAWTON/FT SILL SUNNY     50  32  51 N15       30.17R
FREDERICK      SUNNY     52  28  39 N14       30.16R
CLINTON        CLOUDY    44  25  47 N15       30.21R
HOBART         SUNNY     49  28  44 N14       30.21R
ALTUS AFB      SUNNY     50  23  34 N13       30.20R
$$

OKZ018>020-024>031-141800-
CENTRAL OKLAHOMA

CITY           SKY/WX    TMP DP  RH WIND       PRES   REMARKS
OKLAHOMA CITY  CLOUDY    47  27  45 N13       30.18R
OKC/WILEY POST MOSUNNY   47  28  47 N12       30.19R
OKC/TINKER AFB MOSUNNY   47  27  45 N14       30.17R
STILLWATER     CLOUDY    45  27  49 N12       30.18R
$$

OKZ008-013-054>072-141800-
NORTHEAST OKLAHOMA

CITY           SKY/WX    TMP DP  RH WIND       PRES   REMARKS
TULSA          PTSUNNY   45  28  51 NW9       30.17R
TULSA/JONES    CLOUDY    45  27  49 N8        30.17R
PONCA CITY     PTSUNNY   44  26  49 N14       30.17R
BARTLESVILLE   PTSUNNY   44  25  47 N12G17    30.18R
MUSKOGEE       MOSUNNY   46  28  49 N12       30.15S
$$

OKZ032-040>043-046>053-073>077-141800-
SOUTH CENTRAL/SOUTHEAST OKLAHOMA

CITY           SKY/WX    TMP DP  RH WIND       PRES   REMARKS
ARDMORE/DWNTWN SUNNY     52  28  40 NE10      30.14R
MCALESTER      SUNNY     51  29  42 N12       30.14R
$$





USA.gov is the U.S. government's official web portal to all federal, state and local government web resources and services.